Find Starlink 5291

NORAD ID: 55273 Int'l Des: 2023-010 Owner: SPXS Country: US Constellation: starlink operational
LEOCIRCULAR

現在のビュー

3D地球を読み込み中...

About Starlink 5291

Starlink 5291 (NORAD 55273) is a starlink constellation satellite (v1.5) launched Jan 19, 2023 by SPXS of US. It operates in LEO, CIRCULAR orbit with a mass of 305.00 kg.

Starlink 5291について

説明を読み込み中...

次回通過

Passes for default location (London). Set your location on the main map for personalized predictions.

高度履歴

Loading altitude history...

軌道要素

1 55273U 23010E 26171.32739308 .00000599 00000-0 57965-4 0 9999
2 55273 69.9989 145.5288 0003864 257.0839 102.9888 14.98339701188167
Epoch: Jun 20, 2026 • Age: 41 hours

現在のステータス

高度 577.5 km
速度 7.58 km/s
衛星直下点 36.67°N, 27.32°E
打ち上げ日 Jan 19, 2023
運用期間 3.4 years
タイプ internet

技術仕様

分類 Payload
質量 305.00 kg
乾燥質量 290.00 kg
総質量 305.00 kg
長さ 0.20 m
直径 2.80 m
スパン 9.00 m
形状 Box + pan
製造者 SPXS
バスタイプ Starlink
フェーズステータス In Orbit
所有者/国 SPXS/US

Most Searched